Weather History for Detroit, MI

Change the Weather History Date:

Saturday, September 21, 2013

  Actual Average Record
Temperature  
Mean Temperature 63 °F -  
Max Temperature 70 °F 68 °F 90 °F (1970)
Min Temperature 57 °F 54 °F 36 °F (1956)
Degree Days  
Heating Degree Days 2    
Growing Degree Days 13 (Base 50)    
Moisture  
Dew Point 57 °F    
Average Humidity 78    
Maximum Humidity 100    
Minimum Humidity 44    
Precipitation  
Precipitation 0.62 in - - ()
Sea Level Pressure  
Sea Level Pressure 29.73 in    
Wind  
Wind Speed 7 mph (WNW)    
Max Wind Speed 16 mph    
Max Gust Speed 22 mph    
Visibility 8 miles    
Events Rain    
Averages and records for this station are not official NWS values.
T = Trace of Precipitation, MM = Missing Value Source: NWS Daily Summary

Daily Weather History Graph

Daily Weather History Graph

Search for Another Location

Airport:

Trip Planner

Search our weather history database for the weather conditions in past years. The results will help you decide how hot, cold, wet, or windy it might be!

Date:

Astronomy

Sep. 21, 2013 Rise Set
Actual Time 7:18 AM EDT 7:30 PM EDT
Civil Twilight 6:50 AM EDT 7:58 PM EDT
Nautical Twilight 6:17 AM EDT 8:31 PM EDT
Astronomical Twilight 5:43 AM EDT 9:05 PM EDT
Moon 8:36 PM EDT (9/21) 9:39 AM EDT (9/21)
Length of Visible Light 13h 08m
Length of Day
12h 12m
Waning Gibbous, 94% of the Moon is Illuminated
Sep 21
Waning Gibbous
Sep 26
Last Quarter
Oct 4
New
Oct 11
First Quarter
Oct 18
Full

Hourly Weather History & Observations

Time (EDT) Temp. Dew Point Humidity Pressure Visibility Wind Dir Wind Speed Gust Speed Precip Events Conditions
12:07 AM 69.8 °F 66.2 °F 88% 29.74 in 2.0 mi SW 8.1 mph - 0.06 in Rain Heavy Rain
12:19 AM 69.8 °F 66.2 °F 88% 29.74 in 1.5 mi WNW 8.1 mph - 0.14 in Rain Heavy Rain
12:27 AM 66.2 °F 66.2 °F 100% 29.74 in 1.5 mi WNW 6.9 mph - 0.21 in Rain Heavy Rain
12:34 AM 66.2 °F 64.4 °F 94% 29.74 in 3.0 mi West 5.8 mph - 0.27 in Rain Rain
12:48 AM 66.2 °F 64.4 °F 94% 29.74 in 3.0 mi West 3.5 mph - 0.38 in Rain Rain
12:53 AM 66.9 °F 64.9 °F 93% 29.74 in 4.0 mi WSW 4.6 mph - 0.41 in Rain Rain
1:03 AM 66.2 °F 64.4 °F 94% 29.74 in 3.0 mi SW 4.6 mph - 0.07 in Rain Heavy Rain
1:08 AM 66.2 °F 64.4 °F 94% 29.73 in 4.0 mi West 3.5 mph - 0.09 in Rain Rain
1:21 AM 66.2 °F 64.4 °F 94% 29.73 in 9.0 mi WNW 3.5 mph - 0.12 in Rain Light Rain
1:53 AM 66.9 °F 64.0 °F 90% 29.72 in 6.0 mi WSW 4.6 mph - 0.15 in Rain Light Rain
2:12 AM 66.2 °F 62.6 °F 88% 29.72 in 9.0 mi Calm Calm - 0.02 in Rain Light Rain
2:53 AM 64.9 °F 62.1 °F 90% 29.71 in 10.0 mi SW 4.6 mph - 0.03 in Rain Light Rain
3:39 AM 64.4 °F 62.6 °F 94% 29.70 in 9.0 mi SW 3.5 mph - 0.02 in Rain Light Rain
3:53 AM 64.9 °F 62.1 °F 90% 29.70 in 10.0 mi WSW 4.6 mph - 0.02 in Rain Light Rain
4:53 AM 64.9 °F 63.0 °F 93% 29.68 in 8.0 mi Calm Calm - 0.01 in   Overcast
5:53 AM 64.9 °F 61.0 °F 87% 29.67 in 10.0 mi WNW 6.9 mph - 0.00 in   Mostly Cloudy
6:03 AM 64.4 °F 60.8 °F 88% 29.68 in 10.0 mi WNW 9.2 mph - N/A   Mostly Cloudy
6:30 AM 64.4 °F 60.8 °F 88% 29.68 in 10.0 mi NW 6.9 mph - N/A   Mostly Cloudy
6:53 AM 63.0 °F 60.1 °F 90% 29.67 in 10.0 mi WNW 4.6 mph - N/A   Mostly Cloudy
7:12 AM 62.6 °F 59.0 °F 88% 29.68 in 10.0 mi WNW 4.6 mph - N/A   Scattered Clouds
7:53 AM 62.1 °F 59.0 °F 90% 29.68 in 10.0 mi WNW 4.6 mph - N/A   Clear
8:53 AM 62.1 °F 57.9 °F 86% 29.68 in 10.0 mi WNW 8.1 mph - N/A   Clear
9:53 AM 62.1 °F 57.0 °F 84% 29.70 in 10.0 mi WNW 10.4 mph - N/A   Clear
10:53 AM 62.1 °F 57.0 °F 84% 29.70 in 10.0 mi WNW 4.6 mph - N/A   Partly Cloudy
11:32 AM 66.2 °F 55.4 °F 68% 29.71 in 9.0 mi NW 8.1 mph 17.3 mph N/A   Mostly Cloudy
11:42 AM 66.2 °F 55.4 °F 68% 29.71 in 10.0 mi NW 9.2 mph - N/A   Mostly Cloudy
11:53 AM 66.0 °F 55.0 °F 68% 29.70 in 10.0 mi NW 12.7 mph 19.6 mph N/A   Mostly Cloudy
12:00 PM 66.2 °F 55.4 °F 68% 29.71 in 10.0 mi NNW 10.4 mph 17.3 mph N/A   Mostly Cloudy
12:53 PM 66.0 °F 54.0 °F 65% 29.71 in 10.0 mi North 11.5 mph 19.6 mph N/A   Mostly Cloudy
1:53 PM 69.1 °F 53.1 °F 57% 29.72 in 10.0 mi North 13.8 mph 19.6 mph N/A   Mostly Cloudy
2:53 PM 64.9 °F 52.0 °F 63% 29.73 in 10.0 mi NW 11.5 mph 19.6 mph N/A   Overcast
3:53 PM 66.0 °F 52.0 °F 60% 29.73 in 10.0 mi North 8.1 mph - N/A   Overcast
4:53 PM 69.1 °F 46.9 °F 45% 29.73 in 10.0 mi WNW 6.9 mph 18.4 mph N/A   Mostly Cloudy
5:53 PM 69.1 °F 46.0 °F 44% 29.75 in 10.0 mi WNW 12.7 mph 20.7 mph N/A   Mostly Cloudy
6:53 PM 66.0 °F 45.0 °F 47% 29.77 in 10.0 mi NW 16.1 mph 21.9 mph N/A   Clear
7:53 PM 62.1 °F 45.0 °F 53% 29.78 in 10.0 mi WNW 4.6 mph - N/A   Partly Cloudy
8:53 PM 61.0 °F 46.0 °F 58% 29.82 in 10.0 mi NNW 11.5 mph - N/A   Clear
9:53 PM 59.0 °F 45.0 °F 60% 29.83 in 10.0 mi NNW 10.4 mph - N/A   Overcast
10:53 PM 57.9 °F 43.0 °F 58% 29.85 in 10.0 mi NW 8.1 mph 17.3 mph N/A   Overcast
11:53 PM 57.0 °F 43.0 °F 59% 29.87 in 10.0 mi North 8.1 mph - N/A   Overcast